Location: Most
(50.5133°N, 13.6207°E)
Time: 06:06:09
(UTC+01:00)

ZACube-1 - Pass Details

Date: 03 December 2021
Orbit: 583 x 664 km, 97.6° (Epoch: 19 January)

Event Time Altitude Azimuth Distance (km) Brightness Sun altitude
Rises 05:11:30 0° 8° (N) 2,992 ? -23.7°
Reaches altitude 10° 05:13:47 10° 3° (N) 2,084 ? -23.4°
Enters shadow 05:15:06 19° 356° (N) 1,589 ? -23.2°
